THOR ABLESTAR DEB, 2620

Orbit data source: Space-Track

THOR ABLESTAR DEB, 2620 is space debris in LEO originally from a launch on Thu, 05 Dec 1963 UTC launched from the Air Force Western Test Range (AFWTR). Debris objects in space refer to the collection of defunct objects orbiting the Earth. Examples of debris include non-operational satellites, rocket bodies, and fragments generated from explosions, collisions, or faulty payload assembly.

Loading next visibility...
Identifier
2620, 1963-049H
Orbit
LEO
Country
Flag of USUS
Related business
Manufacturer
Unknown
Mission
Spacecraft
Bus & Motor
Unknown
Mass
Unknown
Launch date (UTC)
1963-12-05 (62 years ago)
Launch vehicle
Unknown
Launch site
Air Force Western Test Range (AFWTR)
Object type
Payload
Rocket body
Debris
Shape & HBR
Unknown
Radar Cross Section
Small (<0.1 m²)

Expand to show TLE details & history
Last TLE update: 1 day ago

TLE from 1 day ago
0 THOR ABLESTAR DEB
1 02620U 63049H   25259.73692623  .00000250  00000-0  32456-3 0  9993
2 02620  89.9099  74.8675 0015509 172.5064 204.6470 13.59585212 53235
Epoch: 2025-09-16T17:41Z
TLE epoch observation values (Epoch: 2025-09-16T17:41:10.426Z)
Latitude
17.06454°
Longitude
173.67863°
Altitude
1,050.018 km
Speed
7.323 km/s
True Right ascension
04h 59m 34s
True Declination
16° 58' 20"
Sunlit
Object was in daylight at epoch
Visualization orbit readout
Latitude
Unknown
Longitude
Unknown
Altitude
Unknown
Speed
Unknown
Apparent Right ascension
Unknown
Apparent Declination
Unknown
Sunlit
N/A
Visualization observer readout
Local Sidereal Time
12:55:06
Azimuth
Unknown
Elevation
Unknown
Doppler factor
Unknown
Orbital elements
Apogee altitude
1,045.732 km
Perigee altitude
1,022.74 km
Semi-major axis
7,412.373 km
Eccentricity
0.00155
Inclination
89.9099°
RAAN
74.8675°
Arg. of periapsis
172.5064°
True anomaly
204.57302°
Mean anomaly
204.647°
Eccentric anomaly
204.61°
Mean motion
3.40101 °/min
Orbital period
105.85 mins
BSTAR
0.00032456
Loading maneuver chart data...
Computing Atmospheric mass density...
Loading historical data...
Loading historical data...
Loading historical data...
Loading historical data...
Loading historical data...
Loading historical data...
Loading historical data...

Documentation

Showing up to 5 results
|